Home   Weather   Chhapra   Past weeks

Flag for India Past Weather in Chhapra, Bihar, India — Yesterday and Last 2 Weeks

Now
86 °F

Broken clouds.


Feels Like: 97 °F
Forecast: 80 / 92 °F
Wind: 10 mph from Southeast

Location: Patna Airport

Current Time: Aug 19, 2017 at 9:12:47 am

Latest Report: Aug 19, 2017 at 8:30 am


Visibility: 2 mi

Pressure: 29.65 "Hg

Humidity: 75%

Dew Point: 77 °F

Location of ChhapraLocation

Past Weather in Chhapra — Graph

°F

Chhapra Temperature Yesterday

Maximum temperature yesterday: 91 °F (at 11:30 am)
Minimum temperature yesterday: 79 °F (at 2:30 am)
Average temperature yesterday: 86 °F

High & Low Weather Summary for the Past Weeks

 TemperatureHumidityPressure
High95 °F (Aug 6, 12:00 pm)100% (Aug 5, 1:30 am)29.77 "Hg (Aug 5, 1:30 am)
Low77 °F (Aug 14, 11:30 am)55% (Aug 7, 12:00 am)29.39 "Hg (Aug 4, 4:30 pm)
Average84 °F87%29.54 "Hg
* Reported Aug 4 10:30 am — Aug 19 8:00 am, Chhapra. Weather by CustomWeather, © 2017

Note: Actual official high and low records may vary slightly from our data, if they occured in-between our weather recording intervals... More about our weather records

Advertising

Chhapra Weather History for the Previous 24 Hours

Scroll right to see more
 ConditionsComfort  
Time TempWeatherWind HumidityBarometerVisibility
8:00 am
Sat, Aug 19
84 °FBroken clouds.7 mph84%29.65 "Hg2 mi
7:30 am82 °FBroken clouds.7 mph89%29.65 "Hg2 mi
6:30 am82 °FBroken clouds.9 mph89%29.62 "Hg1 mi
6:00 am82 °FBroken clouds.6 mph89%29.62 "Hg1 mi
5:30 am82 °FPartly cloudy.6 mph89%29.62 "Hg1 mi
5:00 am82 °FPartly cloudy.6 mph89%29.59 "Hg1 mi
4:30 am82 °FPassing clouds.6 mph89%29.59 "Hg1 mi
4:00 am84 °FPassing clouds.6 mph84%29.59 "Hg2 mi
3:30 am84 °FPartly cloudy.6 mph84%29.59 "Hg2 mi
3:00 am84 °FPartly cloudy.7 mph84%29.59 "Hg2 mi
2:00 am84 °FPartly cloudy.7 mph84%29.59 "Hg2 mi
1:00 am84 °FPartly cloudy.9 mph84%29.59 "Hg2 mi
12:00 am84 °FPartly cloudy.9 mph84%29.59 "Hg2 mi
11:30 pm
Fri, Aug 18
86 °FPartly cloudy.9 mph84%29.59 "Hg2 mi
11:00 pm86 °FPartly cloudy.9 mph84%29.62 "Hg2 mi
10:30 pm86 °FPartly cloudy.9 mph84%29.59 "Hg2 mi
10:00 pm86 °FPartly cloudy.9 mph84%29.59 "Hg2 mi
9:30 pm86 °FPartly cloudy.12 mph84%29.59 "Hg2 mi
9:00 pm86 °FPartly cloudy.12 mph84%29.59 "Hg2 mi
8:30 pm86 °FPartly cloudy.9 mph84%29.56 "Hg2 mi
8:00 pm86 °FPartly cloudy.9 mph84%29.56 "Hg2 mi
7:30 pm86 °FPartly cloudy.7 mph84%29.56 "Hg2 mi
7:00 pm88 °FPartly cloudy.7 mph75%29.53 "Hg2 mi
6:30 pm88 °FBroken clouds.7 mph75%29.53 "Hg3 mi
5:30 pm90 °FBroken clouds.7 mph71%29.47 "Hg3 mi
5:00 pm90 °FBroken clouds.9 mph71%29.47 "Hg3 mi
4:30 pm90 °FBroken clouds.12 mph75%29.47 "Hg3 mi
4:00 pm90 °FBroken clouds.7 mph75%29.47 "Hg3 mi
3:30 pm90 °FBroken clouds.8 mph75%29.47 "Hg3 mi
3:00 pm91 °FPartly sunny.8 mph71%29.50 "Hg3 mi
2:30 pm91 °FScattered clouds.7 mph71%29.50 "Hg3 mi
2:00 pm91 °FBroken clouds.12 mph71%29.50 "Hg3 mi
1:30 pm91 °FBroken clouds.12 mph75%29.50 "Hg3 mi
1:00 pm91 °FBroken clouds.8 mph75%29.53 "Hg3 mi
12:00 pm91 °FBroken clouds.12 mph75%29.56 "Hg3 mi
11:30 am91 °FBroken clouds.6 mph71%29.56 "Hg3 mi
11:00 am90 °FBroken clouds.12 mph75%29.56 "Hg2 mi
10:30 am90 °FBroken clouds.10 mph75%29.56 "Hg2 mi
10:00 am90 °FBroken clouds.7 mph75%29.56 "Hg2 mi
Weather by CustomWeather, © 2017

See weather overviewHow to use our weather pages